Time,TemperatureF,DewpointF,PressureIn,WindDirection,WindDirectionDegrees,WindSpeedMPH,WindSpeedGustMPH,Humidity,HourlyPrecipIn,Conditions,Clouds,dailyrainin,SoftwareType,DateUTC
2013-01-11 00:00:00,35.2,26.0,30.14,North,350,2.0,5.0,68,0.01,,,0.00,weatherlink.com 1.10,2013-01-11 08:00:00,
2013-01-11 00:15:00,35.0,27.0,30.14,West,272,1.0,6.0,72,0.01,,,0.00,weatherlink.com 1.10,2013-01-11 08:15:00,
2013-01-11 00:30:00,34.7,25.0,30.14,North,350,1.0,5.0,69,0.00,,,0.00,weatherlink.com 1.10,2013-01-11 08:30:00,
2013-01-11 00:45:00,34.5,25.0,30.15,WNW,301,2.0,8.0,67,0.00,,,0.00,weatherlink.com 1.10,2013-01-11 08:45:00,
2013-01-11 01:00:00,34.5,26.0,30.16,WNW,297,2.0,8.0,72,0.00,,,0.00,weatherlink.com 1.10,2013-01-11 09:00:00,
2013-01-11 01:15:00,34.4,26.0,30.16,West,279,1.0,7.0,72,0.00,,,0.00,weatherlink.com 1.10,2013-01-11 09:15:00,
2013-01-11 01:30:00,34.4,27.0,30.16,WNW,283,2.0,8.0,73,0.00,,,0.00,weatherlink.com 1.10,2013-01-11 09:30:00,
2013-01-11 01:45:00,34.1,26.0,30.16,NNW,340,1.0,4.0,72,0.00,,,0.00,weatherlink.com 1.10,2013-01-11 09:45:00,
2013-01-11 02:00:00,34.2,25.0,30.17,WNW,301,2.0,5.0,70,0.00,,,0.00,weatherlink.com 1.10,2013-01-11 10:00:00,
2013-01-11 02:15:00,34.0,25.0,30.18,North,350,3.0,4.0,70,0.00,,,0.00,weatherlink.com 1.10,2013-01-11 10:15:00,
2013-01-11 02:30:00,33.8,24.0,30.18,North,359,2.0,4.0,68,0.00,,,0.00,weatherlink.com 1.10,2013-01-11 10:30:00,
2013-01-11 02:45:00,33.7,25.0,30.18,NW,318,1.0,4.0,69,0.00,,,0.00,weatherlink.com 1.10,2013-01-11 10:45:00,
2013-01-11 03:00:00,33.6,24.0,30.18,NNW,340,0.0,5.0,69,0.00,,,0.00,weatherlink.com 1.10,2013-01-11 11:00:00,
2013-01-11 03:15:00,33.6,25.0,30.18,NNW,345,2.0,4.0,70,0.00,,,0.00,weatherlink.com 1.10,2013-01-11 11:15:00,
2013-01-11 03:30:00,33.5,25.0,30.19,WNW,287,4.0,4.0,70,0.00,,,0.00,weatherlink.com 1.10,2013-01-11 11:30:00,
2013-01-11 03:45:00,33.4,24.0,30.19,North,350,1.0,5.0,68,0.00,,,0.00,weatherlink.com 1.10,2013-01-11 11:45:00,
2013-01-11 04:00:00,33.4,23.0,30.19,North,356,2.0,5.0,65,0.00,,,0.00,weatherlink.com 1.10,2013-01-11 12:00:00,
2013-01-11 04:15:00,33.3,23.0,30.20,NW,326,1.0,6.0,65,0.00,,,0.00,weatherlink.com 1.10,2013-01-11 12:15:00,
2013-01-11 04:30:00,33.2,23.0,30.20,NW,323,1.0,4.0,65,0.00,,,0.00,weatherlink.com 1.10,2013-01-11 12:30:00,
2013-01-11 04:45:00,33.2,22.0,30.20,NNW,336,0.0,4.0,64,0.00,,,0.00,weatherlink.com 1.10,2013-01-11 12:45:00,
2013-01-11 05:00:00,32.9,23.0,30.20,NW,304,2.0,4.0,66,0.00,,,0.00,weatherlink.com 1.10,2013-01-11 13:00:00,
2013-01-11 05:15:00,33.0,21.0,30.21,North,350,1.0,6.0,62,0.00,,,0.00,weatherlink.com 1.10,2013-01-11 13:15:00,
2013-01-11 05:31:00,33.5,21.0,30.21,WNW,289,1.0,8.0,60,0.00,,,0.00,weatherlink.com 1.10,2013-01-11 13:31:00,
2013-01-11 05:46:00,33.7,20.0,30.22,North,10,2.0,9.0,58,0.00,,,0.00,weatherlink.com 1.10,2013-01-11 13:46:00,
2013-01-11 06:01:00,33.6,20.0,30.22,NNW,329,3.0,8.0,59,0.00,,,0.00,weatherlink.com 1.10,2013-01-11 14:01:00,
2013-01-11 06:16:00,33.5,21.0,30.23,WNW,296,4.0,6.0,60,0.00,,,0.00,weatherlink.com 1.10,2013-01-11 14:16:00,
2013-01-11 06:31:00,33.6,20.0,30.23,WNW,302,3.0,7.0,59,0.00,,,0.00,weatherlink.com 1.10,2013-01-11 14:31:00,
2013-01-11 06:46:00,33.6,21.0,30.24,WNW,286,2.0,6.0,60,0.00,,,0.00,weatherlink.com 1.10,2013-01-11 14:46:00,
2013-01-11 07:01:00,33.8,22.0,30.25,NW,310,2.0,7.0,62,0.00,,,0.00,weatherlink.com 1.10,2013-01-11 15:01:00,
2013-01-11 07:16:00,34.0,22.0,30.25,West,281,6.0,7.0,63,0.00,,,0.00,weatherlink.com 1.10,2013-01-11 15:16:00,
2013-01-11 07:31:00,33.8,22.0,30.26,WNW,297,4.0,6.0,62,0.00,,,0.00,weatherlink.com 1.10,2013-01-11 15:31:00,
2013-01-11 07:46:00,33.6,22.0,30.27,North,350,3.0,6.0,63,0.00,,,0.00,weatherlink.com 1.10,2013-01-11 15:46:00,
2013-01-11 08:01:00,33.3,22.0,30.27,WNW,294,0.0,5.0,63,0.00,,,0.00,weatherlink.com 1.10,2013-01-11 16:01:00,
2013-01-11 08:16:00,33.3,22.0,30.27,NNW,340,1.0,5.0,63,0.00,,,0.00,weatherlink.com 1.10,2013-01-11 16:16:00,
2013-01-11 08:31:00,33.4,23.0,30.28,WSW,258,0.0,4.0,65,0.00,,,0.00,weatherlink.com 1.10,2013-01-11 16:31:00,
2013-01-11 08:46:00,33.4,22.0,30.29,WNW,294,2.0,5.0,64,0.00,,,0.00,weatherlink.com 1.10,2013-01-11 16:46:00,
2013-01-11 09:01:00,33.7,23.0,30.29,NNW,345,0.0,4.0,65,0.00,,,0.00,weatherlink.com 1.10,2013-01-11 17:01:00,
2013-01-11 09:16:00,33.5,23.0,30.30,WNW,290,0.0,4.0,66,0.00,,,0.00,weatherlink.com 1.10,2013-01-11 17:16:00,
2013-01-11 09:31:00,33.2,25.0,30.30,NE,38,0.0,3.0,71,0.00,,,0.00,weatherlink.com 1.10,2013-01-11 17:31:00,
2013-01-11 09:46:00,33.2,22.0,30.30,NNW,345,0.0,6.0,64,0.00,,,0.00,weatherlink.com 1.10,2013-01-11 17:46:00,
2013-01-11 10:01:00,33.6,22.0,30.30,NW,309,0.0,11.0,63,0.00,,,0.00,weatherlink.com 1.10,2013-01-11 18:01:00,
2013-01-11 10:16:00,33.9,22.0,30.31,WNW,300,3.0,7.0,63,0.00,,,0.00,weatherlink.com 1.10,2013-01-11 18:16:00,
2013-01-11 10:31:00,33.9,22.0,30.31,WNW,283,5.0,7.0,62,0.00,,,0.00,weatherlink.com 1.10,2013-01-11 18:31:00,
2013-01-11 10:46:00,33.8,21.0,30.32,NNW,332,2.0,8.0,60,0.00,,,0.00,weatherlink.com 1.10,2013-01-11 18:46:00,
2013-01-11 11:16:00,33.8,20.0,30.31,NNW,327,3.0,6.0,57,0.00,,,0.00,weatherlink.com 1.10,2013-01-11 19:16:00,
2013-01-11 11:31:00,33.8,21.0,30.31,WNW,290,2.0,7.0,59,0.00,,,0.00,weatherlink.com 1.10,2013-01-11 19:31:00,
2013-01-11 11:46:00,33.8,21.0,30.31,WNW,288,2.0,8.0,61,0.00,,,0.00,weatherlink.com 1.10,2013-01-11 19:46:00,
2013-01-11 12:01:00,33.8,21.0,30.32,WNW,295,1.0,7.0,60,0.00,,,0.00,weatherlink.com 1.10,2013-01-11 20:01:00,
2013-01-11 12:16:00,33.9,22.0,30.31,WNW,298,2.0,6.0,61,0.00,,,0.00,weatherlink.com 1.10,2013-01-11 20:16:00,
2013-01-11 12:31:00,34.0,22.0,30.30,WNW,294,2.0,5.0,63,0.00,,,0.00,weatherlink.com 1.10,2013-01-11 20:31:00,
2013-01-11 12:46:00,34.2,23.0,30.30,WNW,300,2.0,5.0,64,0.00,,,0.00,weatherlink.com 1.10,2013-01-11 20:46:00,
2013-01-11 13:01:00,34.3,23.0,30.30,North,360,2.0,6.0,64,0.00,,,0.00,weatherlink.com 1.10,2013-01-11 21:01:00,
2013-01-11 13:16:00,34.5,23.0,30.31,WNW,303,3.0,8.0,62,0.00,,,0.00,weatherlink.com 1.10,2013-01-11 21:16:00,
2013-01-11 13:31:00,34.7,23.0,30.30,WSW,254,6.0,7.0,63,0.00,,,0.00,weatherlink.com 1.10,2013-01-11 21:31:00,
2013-01-11 13:46:00,34.9,24.0,30.30,NW,304,1.0,6.0,65,0.00,,,0.00,weatherlink.com 1.10,2013-01-11 21:46:00,
2013-01-11 14:01:00,35.1,24.0,30.30,NW,323,4.0,7.0,64,0.00,,,0.00,weatherlink.com 1.10,2013-01-11 22:01:00,
2013-01-11 14:16:00,35.0,23.0,30.31,WNW,292,0.0,5.0,62,0.00,,,0.00,weatherlink.com 1.10,2013-01-11 22:16:00,
2013-01-11 14:31:00,35.0,24.0,30.31,WNW,296,5.0,5.0,65,0.00,,,0.00,weatherlink.com 1.10,2013-01-11 22:31:00,
2013-01-11 14:46:00,35.0,23.0,30.32,WNW,303,1.0,7.0,63,0.00,,,0.00,weatherlink.com 1.10,2013-01-11 22:46:00,
2013-01-11 15:02:00,35.1,24.0,30.32,WNW,300,2.0,3.0,65,0.00,,,0.00,weatherlink.com 1.10,2013-01-11 23:02:00,
2013-01-11 15:16:00,34.9,24.0,30.32,WNW,291,0.0,3.0,64,0.00,,,0.00,weatherlink.com 1.10,2013-01-11 23:16:00,
2013-01-11 15:31:00,34.8,24.0,30.32,WNW,283,0.0,4.0,66,0.00,,,0.00,weatherlink.com 1.10,2013-01-11 23:31:00,
2013-01-11 15:46:00,34.4,24.0,30.32,WNW,283,0.0,1.0,67,0.00,,,0.00,weatherlink.com 1.10,2013-01-11 23:46:00,
2013-01-11 16:01:00,33.7,24.0,30.32,WNW,283,0.0,1.0,67,0.00,,,0.00,weatherlink.com 1.10,2013-01-12 00:01:00,
2013-01-11 16:16:00,33.2,24.0,30.32,WNW,283,0.0,1.0,69,0.00,,,0.00,weatherlink.com 1.10,2013-01-12 00:16:00,
2013-01-11 16:31:00,32.7,24.0,30.32,WNW,283,1.0,2.0,71,0.00,,,0.00,weatherlink.com 1.10,2013-01-12 00:31:00,
2013-01-11 16:47:00,32.3,24.0,30.32,WNW,283,0.0,2.0,72,0.00,,,0.00,weatherlink.com 1.10,2013-01-12 00:47:00,
2013-01-11 17:02:00,32.1,25.0,30.33,WNW,283,0.0,1.0,75,0.00,,,0.00,weatherlink.com 1.10,2013-01-12 01:02:00,
2013-01-11 17:17:00,32.0,25.0,30.32,WNW,283,0.0,1.0,75,0.00,,,0.00,weatherlink.com 1.10,2013-01-12 01:17:00,
2013-01-11 17:32:00,31.8,24.0,30.32,WNW,284,0.0,1.0,74,0.00,,,0.00,weatherlink.com 1.10,2013-01-12 01:32:00,
2013-01-11 17:47:00,31.8,25.0,30.32,WNW,284,0.0,1.0,75,0.00,,,0.00,weatherlink.com 1.10,2013-01-12 01:47:00,
2013-01-11 18:02:00,31.7,25.0,30.32,WNW,284,1.0,1.0,76,0.00,,,0.00,weatherlink.com 1.10,2013-01-12 02:02:00,
2013-01-11 18:17:00,31.5,25.0,30.32,WNW,284,1.0,1.0,76,0.00,,,0.00,weatherlink.com 1.10,2013-01-12 02:17:00,
2013-01-11 18:32:00,31.5,24.0,30.32,WNW,284,1.0,1.0,74,0.00,,,0.00,weatherlink.com 1.10,2013-01-12 02:32:00,
2013-01-11 18:47:00,31.6,25.0,30.32,NE,49,2.0,2.0,76,0.00,,,0.00,weatherlink.com 1.10,2013-01-12 02:47:00,
2013-01-11 19:02:00,31.8,25.0,30.32,NE,49,1.0,3.0,76,0.00,,,0.00,weatherlink.com 1.10,2013-01-12 03:02:00,
2013-01-11 19:17:00,31.7,25.0,30.31,NE,49,2.0,3.0,76,0.00,,,0.00,weatherlink.com 1.10,2013-01-12 03:17:00,
2013-01-11 19:32:00,31.6,25.0,30.31,ENE,76,1.0,3.0,77,0.00,,,0.00,weatherlink.com 1.10,2013-01-12 03:32:00,
2013-01-11 19:47:00,31.6,25.0,30.32,East,96,2.0,4.0,76,0.00,,,0.00,weatherlink.com 1.10,2013-01-12 03:47:00,
2013-01-11 20:02:00,31.5,24.0,30.31,East,89,2.0,3.0,75,0.00,,,0.00,weatherlink.com 1.10,2013-01-12 04:02:00,
2013-01-11 20:17:00,31.5,24.0,30.31,East,89,1.0,3.0,74,0.00,,,0.00,weatherlink.com 1.10,2013-01-12 04:17:00,
2013-01-11 20:32:00,31.5,24.0,30.32,East,89,1.0,3.0,73,0.00,,,0.00,weatherlink.com 1.10,2013-01-12 04:32:00,
2013-01-11 20:47:00,31.3,25.0,30.32,East,89,1.0,3.0,77,0.00,,,0.00,weatherlink.com 1.10,2013-01-12 04:47:00,
2013-01-11 21:02:00,31.3,25.0,30.32,East,89,2.0,3.0,77,0.00,,,0.00,weatherlink.com 1.10,2013-01-12 05:02:00,
2013-01-11 21:17:00,31.4,24.0,30.32,East,89,0.0,3.0,75,0.00,,,0.00,weatherlink.com 1.10,2013-01-12 05:17:00,
2013-01-11 21:32:00,31.4,25.0,30.32,East,89,1.0,3.0,78,0.00,,,0.00,weatherlink.com 1.10,2013-01-12 05:32:00,
2013-01-11 21:47:00,31.4,25.0,30.32,East,89,2.0,3.0,78,0.00,,,0.00,weatherlink.com 1.10,2013-01-12 05:47:00,
2013-01-11 22:02:00,31.4,25.0,30.32,East,89,1.0,3.0,77,0.00,,,0.00,weatherlink.com 1.10,2013-01-12 06:02:00,
2013-01-11 22:17:00,31.5,25.0,30.32,East,89,1.0,3.0,76,0.00,,,0.00,weatherlink.com 1.10,2013-01-12 06:17:00,
2013-01-11 22:32:00,31.5,25.0,30.32,East,89,1.0,2.0,77,0.00,,,0.00,weatherlink.com 1.10,2013-01-12 06:32:00,
2013-01-11 22:47:00,31.2,24.0,30.31,East,89,1.0,3.0,76,0.00,,,0.00,weatherlink.com 1.10,2013-01-12 06:47:00,
2013-01-11 23:02:00,31.1,25.0,30.32,East,96,1.0,3.0,78,0.00,,,0.00,weatherlink.com 1.10,2013-01-12 07:02:00,
2013-01-11 23:17:00,30.8,26.0,30.32,East,96,0.0,2.0,81,0.00,,,0.00,weatherlink.com 1.10,2013-01-12 07:17:00,
2013-01-11 23:32:00,30.6,26.0,30.32,East,96,2.0,3.0,83,0.00,,,0.00,weatherlink.com 1.10,2013-01-12 07:32:00,
2013-01-11 23:47:00,30.5,27.0,30.32,East,96,1.0,4.0,86,0.00,,,0.00,weatherlink.com 1.10,2013-01-12 07:47:00,